Home   Weather   Santa Barbara   Past weeks
Flag for USA

Past Weather in Santa Barbara, California, USA — Yesterday and Last 2 Weeks

Now
62 °F

Overcast.


Feels Like: 62 °F
Forecast: 67 / 59 °F
Wind: 9 mph from West

Location: Santa Barbara Municipal Airport

Current Time: Jun 18, 2019 at 10:55:37 pm

Latest Report: Jun 18, 2019 at 9:53 pm


Visibility: 10 mi

Pressure: 29.98 "Hg

Humidity: 80%

Dew Point: 56 °F

Location of Santa BarbaraLocation

Past Weather in Santa Barbara — Graph

°F

Santa Barbara Temperature Yesterday

Maximum temperature yesterday: 66 °F (at 3:53 pm)
Minimum temperature yesterday: 58 °F (at 3:38 am)
Average temperature yesterday: 61 °F

High & Low Weather Summary for the Past Weeks

 TemperatureHumidityPressure
High79 °F (Jun 10, 12:53 pm)100% (Jun 5, 10:05 pm)30.01 "Hg (Jun 5, 10:05 pm)
Low53 °F (Jun 8, 2:53 am)52% (Jun 11, 3:53 pm)29.84 "Hg (Jun 16, 6:53 pm)
Average61 °F85%29.92 "Hg
* Reported Jun 3 9:20 pm — Jun 18 9:53 pm, Santa Barbara. Weather by CustomWeather, © 2019

Note: Actual official high and low records may vary slightly from our data, if they occured in-between our weather recording intervals... More about our weather records

Advertising

Santa Barbara Weather History for the Previous 24 Hours

Scroll right to see more
 ConditionsComfort  
Time TempWeatherWind HumidityBarometerVisibility
9:53 pm
Tue, Jun 18
62 °FOvercast.9 mph80%29.98 "Hg10 mi
8:53 pm62 °FOvercast.9 mph83%29.96 "Hg10 mi
7:53 pm63 °FPartly sunny.9 mph81%29.95 "Hg10 mi
6:53 pm64 °FOvercast.12 mph78%29.93 "Hg10 mi
5:53 pm65 °FOvercast.9 mph78%29.93 "Hg10 mi
4:53 pm67 °FOvercast.9 mph71%29.94 "Hg10 mi
3:53 pm68 °FOvercast.5 mph68%29.95 "Hg10 mi
2:53 pm69 °FOvercast.6 mph68%29.96 "Hg10 mi
1:53 pm68 °FOvercast.7 mph70%29.97 "Hg10 mi
12:53 pm66 °FOvercast.8 mph73%29.98 "Hg10 mi
11:53 am64 °FOvercast.5 mph78%29.98 "Hg10 mi
10:53 am63 °FOvercast.No wind78%29.98 "Hg10 mi
9:53 am63 °FOvercast.5 mph78%29.96 "Hg10 mi
8:53 am62 °FOvercast.No wind80%29.96 "Hg10 mi
7:53 am62 °FOvercast.3 mph80%29.94 "Hg10 mi
6:53 am61 °FOvercast.No wind87%29.93 "Hg10 mi
5:53 am61 °FOvercast.No wind87%29.91 "Hg10 mi
4:53 am60 °FOvercast.6 mph90%29.90 "Hg10 mi
3:53 am60 °FOvercast.5 mph90%29.89 "Hg10 mi
2:53 am60 °FOvercast.3 mph90%29.90 "Hg10 mi
1:53 am60 °FOvercast.No wind90%29.90 "Hg10 mi
12:53 am60 °FOvercast.No wind90%29.90 "Hg10 mi
11:53 pm
Mon, Jun 17
59 °FOvercast.No wind90%29.90 "Hg10 mi
11:31 pm59 °FPassing clouds.No wind90%29.90 "Hg10 mi
10:53 pm59 °FClear.3 mph90%29.90 "Hg10 mi
Weather by CustomWeather, © 2019

See weather overview